Location: ???????
(55.3754°N, 39.3545°E)
Time: 05:08:35
(UTC+00:00)

CZ-2C R/B - Pass Details

Date: 14 April 2026
Orbit: 781 x 868 km, 98.4° (Epoch: 10 May)

Event Time Altitude Azimuth Distance (km) Brightness Sun altitude
Exits shadow 21:03:25 52° 122° (ESE) 1,056 2.9 -24.8°
Maximum altitude 21:04:35 66° 69° (ENE) 933 2.9 -24.9°
Drops below altitude 10° 21:10:01 10° 348° (NNW) 2,473 6.2 -24.9°
Sets 21:12:23 0° 346° (NNW) 3,399 7.2 -24.9°
